Location: Carnières
(50.1682°N, 3.3474°E)
Time: 20:28:48
(UTC+00:00)

SL-16 R/B - Pass Details

Date: 12 August 2024
Orbit: 842 x 845 km, 71.0° (Epoch: 10 September)

Event Time Altitude Azimuth Distance (km) Brightness Sun altitude
Exits shadow 02:10:03 - 277° (W) 2,836 4.7 -18.2°
Reaches altitude 10° 02:11:30 10° 287° (WNW) 2,470 4.4 -18.1°
Maximum altitude 02:15:09 17° 327° (NNW) 2,010 4.4 -17.8°
Drops below altitude 10° 02:18:49 10° 8° (N) 2,477 5.6 -17.4°
Sets 02:22:12 0° 28° (NNE) 3,416 7.0 -17.1°
